Biloxi, MS (39530)

7:13 PM CDT on August 04, 2015 (GMT -0500)
Keesler Air Force Base | | Change Station
CLOSE
Current Station
Airport
Location: Biloxi,
Elevation: 33 ft
Nearby Weather Stations

Elev 33 ft 30.41 °N, 88.92 °W | Updated 15 minutes ago

Scattered Clouds
Scattered Clouds
86 °F
Feels Like 96 °F
N
12
Wind Variable Wind from SSW

Today
High -- | Low -- °F
--% Chance of Precip.
Yesterday
High -- | Low -- °F
Precip. -- in
6:15 AM 7:47 PM
Waning Gibbous, 73% visible
Pressure 29.97 in
Visibility 10.0 miles
Clouds Scattered Clouds 12000 ft
Heat Index 96 °F
Dew Point 75 °F
Humidity 69%
Rainfall 0.00 in
Snow Depth Not available.
UV 0 out of 12
Pollen 3.00 out of 12
Air Quality Not available.
Flu Activity Not available.
METAR KBIX 042358Z AUTO 21010KT 10SM SCT120 30/24 A2996 RMK AO2 SLP148 T03020240 10323 20299 55005

More Conditions Fewer Conditions

Pressure 29.97 in
Visibility 10.0 miles
Clouds Scattered Clouds 12000 ft
Heat Index 96 °F
Dew Point 75 °F
Humidity 69%
Rainfall 0.00 in
Snow Depth Not available.
UV 0 out of 12
Pollen 3.00 out of 12
Air Quality Not available.
Flu Activity Not available.
METAR KBIX 042358Z AUTO 21010KT 10SM SCT120 30/24 A2996 RMK AO2 SLP148 T03020240 10323 20299 55005

More Conditions Fewer Conditions

10-Day Weather Forecast

×

Almanac

Astronomy

Aug. 04, 2015 Rise Set
Actual Time
Civil Twilight
Nautical Twilight
Astronomical Twilight
Moon
Length of Visible Light
Length of Day
Tomorrow will be .
, % of the Moon is Illuminated

Today's Extremes

State Highs State Lows

Community

WunderPhotos

Upload Photos

1,844,034 photos uploaded!

WunderBlogs® & News

Nearby

Air Quality

  Air Quality AQ Index Pollutant
Not available.

Snow Depth

Station Depth Elevation

Earthquake Activity

City Distance Mag. Time & Date
Minimum magnitude displayed is 2.5.

Coastal Water Temperatures

Place Temperature

Stations

Nearby Weather Stations

Station Location Temp. Windchill Dew Point Humidity Wind Precip. Elev Updated Type